TimeCDT,TemperatureF,Dew PointF,Humidity,Sea Level PressureIn,VisibilityMPH,Wind Direction,Wind SpeedMPH,Gust SpeedMPH,PrecipitationIn,Events,Conditions,WindDirDegrees,DateUTC
12:16 AM,46.4,41.0,81,30.21,10.0,North,4.6,-,N/A,,Overcast,350,2012-10-06 05:16:00
12:35 AM,46.4,41.0,81,30.20,10.0,NNW,4.6,-,N/A,,Overcast,340,2012-10-06 05:35:00
12:55 AM,44.6,41.0,87,30.21,10.0,Calm,Calm,-,N/A,,Scattered Clouds,0,2012-10-06 05:55:00
1:15 AM,44.6,39.2,81,30.21,10.0,North,4.6,-,N/A,,Clear,350,2012-10-06 06:15:00
1:35 AM,44.6,39.2,81,30.21,10.0,NNW,4.6,-,N/A,,Clear,330,2012-10-06 06:35:00
1:55 AM,44.6,39.2,81,30.22,10.0,NNW,4.6,-,N/A,,Scattered Clouds,330,2012-10-06 06:55:00
2:15 AM,44.6,39.2,81,30.22,10.0,NW,3.5,-,N/A,,Mostly Cloudy,320,2012-10-06 07:15:00
2:36 AM,44.6,39.2,81,30.21,10.0,NW,3.5,-,N/A,,Scattered Clouds,320,2012-10-06 07:36:00
2:55 AM,42.8,39.2,87,30.23,10.0,WNW,3.5,-,N/A,,Clear,300,2012-10-06 07:55:00
3:15 AM,42.8,39.2,87,30.22,10.0,NW,5.8,-,N/A,,Clear,320,2012-10-06 08:15:00
3:35 AM,42.8,39.2,87,30.21,10.0,North,6.9,-,N/A,,Clear,350,2012-10-06 08:35:00
3:55 AM,42.8,39.2,87,30.21,10.0,NNW,5.8,-,N/A,,Clear,340,2012-10-06 08:55:00
4:15 AM,42.8,37.4,81,30.21,10.0,North,5.8,-,N/A,,Partly Cloudy,350,2012-10-06 09:15:00
4:35 AM,42.8,37.4,81,30.22,10.0,NNW,5.8,-,N/A,,Scattered Clouds,340,2012-10-06 09:35:00
5:15 AM,42.8,37.4,81,30.24,10.0,NNW,4.6,-,N/A,,Clear,340,2012-10-06 10:15:00
5:35 AM,42.8,37.4,81,30.25,10.0,Calm,Calm,-,N/A,,Scattered Clouds,0,2012-10-06 10:35:00
5:55 AM,42.8,37.4,81,30.25,10.0,NNW,4.6,-,N/A,,Overcast,330,2012-10-06 10:55:00
6:15 AM,41.0,37.4,87,30.26,10.0,NW,3.5,-,N/A,,Scattered Clouds,320,2012-10-06 11:15:00
6:35 AM,41.0,35.6,81,30.26,10.0,NNW,4.6,-,N/A,,Partly Cloudy,340,2012-10-06 11:35:00
6:55 AM,42.8,35.6,76,30.25,10.0,North,5.8,-,N/A,,Mostly Cloudy,360,2012-10-06 11:55:00
7:15 AM,42.8,35.6,76,30.26,10.0,Calm,Calm,-,N/A,,Overcast,0,2012-10-06 12:15:00
7:35 AM,41.0,37.4,87,30.27,10.0,NW,4.6,-,N/A,,Overcast,310,2012-10-06 12:35:00
7:55 AM,42.8,35.6,76,30.28,10.0,NW,4.6,-,N/A,,Overcast,320,2012-10-06 12:55:00
8:15 AM,42.8,35.6,76,30.27,10.0,North,4.6,-,N/A,,Overcast,360,2012-10-06 13:15:00
8:35 AM,42.8,37.4,81,30.28,10.0,NW,3.5,-,N/A,,Overcast,320,2012-10-06 13:35:00
8:56 AM,44.6,37.4,76,30.27,10.0,North,3.5,-,N/A,,Overcast,360,2012-10-06 13:56:00
9:15 AM,44.6,37.4,76,30.25,10.0,North,6.9,-,N/A,,Overcast,10,2012-10-06 14:15:00
9:35 AM,46.4,35.6,66,30.24,8.0,NE,5.8,-,N/A,,Overcast,50,2012-10-06 14:35:00
9:55 AM,50.0,35.6,58,30.22,10.0,NE,12.7,17.3,N/A,,Scattered Clouds,50,2012-10-06 14:55:00
10:15 AM,50.0,33.8,54,30.23,10.0,NE,8.1,-,N/A,,Scattered Clouds,40,2012-10-06 15:15:00
10:35 AM,51.8,32.0,47,30.23,10.0,NE,9.2,-,N/A,,Mostly Cloudy,50,2012-10-06 15:35:00
11:15 AM,51.8,32.0,47,30.24,10.0,NNE,8.1,-,N/A,,Mostly Cloudy,30,2012-10-06 16:15:00
11:35 AM,50.0,32.0,50,30.25,10.0,NE,4.6,-,N/A,,Scattered Clouds,40,2012-10-06 16:35:00
11:55 AM,51.8,32.0,47,30.25,10.0,NNE,8.1,-,N/A,,Mostly Cloudy,30,2012-10-06 16:55:00
12:15 PM,53.6,32.0,44,30.26,10.0,NE,6.9,-,N/A,,Overcast,40,2012-10-06 17:15:00
12:35 PM,53.6,30.2,41,30.24,10.0,North,4.6,-,N/A,,Mostly Cloudy,10,2012-10-06 17:35:00
12:56 PM,53.6,32.0,44,30.24,10.0,North,5.8,-,N/A,,Overcast,350,2012-10-06 17:56:00
1:15 PM,53.6,33.8,47,30.22,10.0,NE,5.8,-,N/A,,Overcast,40,2012-10-06 18:15:00
1:35 PM,53.6,35.6,51,30.21,10.0,NNE,3.5,-,N/A,,Overcast,30,2012-10-06 18:35:00
1:55 PM,51.8,33.8,50,30.21,10.0,North,6.9,-,N/A,,Overcast,360,2012-10-06 18:55:00
2:15 PM,51.8,35.6,54,30.23,10.0,NW,5.8,-,N/A,,Overcast,320,2012-10-06 19:15:00
2:35 PM,50.0,37.4,62,30.21,10.0,WNW,3.5,-,N/A,,Overcast,300,2012-10-06 19:35:00
2:56 PM,50.0,37.4,62,30.21,10.0,NW,3.5,-,N/A,,Mostly Cloudy,320,2012-10-06 19:56:00
3:15 PM,51.8,37.4,58,30.21,10.0,NW,4.6,-,N/A,,Overcast,320,2012-10-06 20:15:00
3:35 PM,48.2,41.0,76,30.20,10.0,NW,3.5,-,N/A,,Overcast,310,2012-10-06 20:35:00
3:55 PM,48.2,39.2,71,30.21,10.0,NNW,4.6,-,N/A,Thunderstorm,Thunderstorm,330,2012-10-06 20:55:00
4:15 PM,48.2,41.0,76,30.20,10.0,NNW,4.6,-,N/A,,Overcast,340,2012-10-06 21:15:00
4:36 PM,48.2,37.4,66,30.19,10.0,North,4.6,-,N/A,,Overcast,350,2012-10-06 21:36:00
4:55 PM,48.2,39.2,71,30.21,10.0,Calm,Calm,-,N/A,,Overcast,0,2012-10-06 21:55:00
5:15 PM,46.4,41.0,81,30.21,10.0,Calm,Calm,-,0.01,,Overcast,0,2012-10-06 22:15:00
5:35 PM,46.4,42.8,87,30.21,10.0,Calm,Calm,-,0.01,,Overcast,0,2012-10-06 22:35:00
6:15 PM,46.4,42.8,87,30.21,10.0,Calm,Calm,-,N/A,,Overcast,0,2012-10-06 23:15:00
6:35 PM,46.4,44.6,93,30.21,10.0,Calm,Calm,-,0.01,,Overcast,0,2012-10-06 23:35:00
6:55 PM,46.4,42.8,87,30.22,10.0,West,3.5,-,0.01,,Overcast,270,2012-10-06 23:55:00
7:15 PM,46.4,44.6,93,30.22,10.0,West,3.5,-,N/A,,Overcast,270,2012-10-07 00:15:00
7:35 PM,46.4,44.6,93,30.23,10.0,WNW,3.5,-,N/A,,Overcast,290,2012-10-07 00:35:00
7:55 PM,46.4,44.6,93,30.22,10.0,Calm,Calm,-,N/A,,Overcast,0,2012-10-07 00:55:00
8:15 PM,46.4,44.6,93,30.21,10.0,Calm,Calm,-,N/A,,Overcast,0,2012-10-07 01:15:00
8:35 PM,46.4,44.6,93,30.23,10.0,Calm,Calm,-,N/A,,Mostly Cloudy,0,2012-10-07 01:35:00
8:36 PM,46.4,44.6,93,30.23,10.0,Calm,Calm,-,N/A,,Overcast,0,2012-10-07 01:36:00
8:55 PM,46.4,44.6,93,30.22,10.0,NNW,3.5,-,N/A,,Overcast,340,2012-10-07 01:55:00
9:15 PM,46.4,42.8,87,30.24,10.0,WNW,4.6,-,N/A,,Mostly Cloudy,300,2012-10-07 02:15:00
9:35 PM,46.4,41.0,81,30.24,10.0,Calm,Calm,-,N/A,,Mostly Cloudy,0,2012-10-07 02:35:00
9:55 PM,46.4,39.2,76,30.25,10.0,NNW,3.5,-,N/A,,Overcast,340,2012-10-07 02:55:00
10:15 PM,46.4,39.2,76,30.25,10.0,NW,4.6,-,N/A,,Overcast,320,2012-10-07 03:15:00
10:35 PM,44.6,39.2,81,30.26,10.0,NW,5.8,-,N/A,,Overcast,320,2012-10-07 03:35:00
10:55 PM,44.6,37.4,76,30.26,10.0,NNW,4.6,-,N/A,,Overcast,330,2012-10-07 03:55:00
11:15 PM,44.6,37.4,76,30.25,10.0,NW,4.6,-,N/A,,Overcast,320,2012-10-07 04:15:00
11:35 PM,44.6,37.4,76,30.25,10.0,NNW,5.8,-,N/A,,Overcast,330,2012-10-07 04:35:00
11:55 PM,44.6,37.4,76,30.25,10.0,NW,4.6,-,N/A,,Mostly Cloudy,320,2012-10-07 04:55:00